Location: Bruch
(44.2051°N, 0.4120°E)
Time: 18:20:23
(UTC+00:00)

SJ 16-02 - Pass Details

Date: 29 November 2020
Orbit: 606 x 616 km, 75.0° (Epoch: 23 January)

Event Time Altitude Azimuth Distance (km) Brightness Sun altitude
Exits shadow 06:23:17 11° 302° (WNW) 1,937 3.2 -8.7°
Maximum altitude 06:23:45 11° 308° (NW) 1,928 3.3 -8.6°
Drops below altitude 10° 06:24:52 10° 323° (NW) 1,984 3.4 -8.4°
Sets 06:29:02 0° 1° (N) 2,897 4.6 -7.7°
